IZ1BLA-10 Weather Reports


time (UTC)temp
F
wind
direction
speed
knots
gust
knots
rain 1hr
in
rain 24hr
in
rain mn
in
humidity
%
barometer
mb
20260506204918 68 0.0 0.0 0.00 0.00 0.00 54 1008.2
20260506203918 65 0.0 0.0 0.00 0.00 0.00 58 1008.3
20260506202918 66 0.0 0.0 0.00 0.00 0.00 57 1008.2
20260506201919 65 0.0 0.0 0.00 0.00 0.00 57 1008.1
20260506200919 66 0.0 0.0 0.00 0.00 0.00 56 1007.9
20260506195918 65 0.0 0.0 0.00 0.00 0.00 58 1007.6
20260506194918 66 0.0 0.0 0.00 0.00 0.00 55 1007.2
20260506193919 65 0.0 0.0 0.00 0.00 0.00 56 1007.0
20260506192918 65 0.0 0.0 0.00 0.00 0.00 56 1006.9
20260506191918 67 0.0 0.0 0.00 0.00 0.00 55 1006.4
20260506190918 66 0.0 0.0 0.00 0.00 0.00 56 1006.3
20260506185918 65 0.0 0.0 0.00 0.00 0.00 59 1006.4
20260506184918 67 0.0 0.0 0.00 0.00 0.00 54 1005.8
20260506183919 68 0.0 0.0 0.00 0.00 0.00 53 1005.5
20260506182918 67 0.0 0.0 0.00 0.00 0.00 55 1005.5
20260506181918 67 0.0 0.0 0.00 0.00 0.00 55 1005.1
20260506180918 67 0.0 0.0 0.00 0.00 0.00 55 1004.9
20260506175920 66 0.0 0.0 0.00 0.00 0.00 56 1004.8
20260506174918 69 0.0 0.0 0.00 0.00 0.00 52 1004.3
20260506173918 67 0.0 0.0 0.00 0.00 0.00 54 1004.3
20260506172919 68 0.0 0.0 0.00 0.00 0.00 54 1004.1
20260506171918 68 0.0 0.0 0.00 0.00 0.00 53 1004.0
20260506170918 68 0.0 0.0 0.00 0.00 0.00 52 1003.9
20260506165918 68 0.0 0.0 0.00 0.00 0.00 52 1003.9
20260506164918 68 0.0 0.0 0.00 0.00 0.00 52 1004.0
20260506163918 70 0.0 0.0 0.00 0.00 0.00 49 1003.7
20260506162918 70 0.0 0.0 0.00 0.00 0.00 49 1003.5
20260506161918 69 0.0 0.0 0.00 0.00 0.00 49 1003.6
20260506160918 68 0.0 0.0 0.00 0.00 0.00 51 1003.7
20260506155918 69 0.0 0.0 0.00 0.00 0.00 51 1003.6
20260506154917 69 0.0 0.0 0.00 0.00 0.00 51 1003.4
20260506153918 70 0.0 0.0 0.00 0.00 0.00 53 1003.6
20260506152918 67 0.0 0.0 0.00 0.00 0.00 57 1003.8
20260506151918 67 0.0 0.0 0.00 0.00 0.00 56 1003.7
20260506150918 67 0.0 0.0 0.00 0.00 0.00 57 1003.8
20260506145918 67 0.0 0.0 0.00 0.00 0.00 57 1003.8
20260506144918 67 0.0 0.0 0.00 0.00 0.00 57 1003.9
20260506143917 68 0.0 0.0 0.00 0.00 0.00 55 1003.6
20260506142918 68 0.0 0.0 0.00 0.00 0.00 53 1003.5
20260506141918 69 0.0 0.0 0.00 0.00 0.00 53 1003.4
20260506140918 70 0.0 0.0 0.00 0.00 0.00 48 1003.3
20260506135918 72 0.0 0.0 0.00 0.00 0.00 41 1003.1
20260506134918 71 0.0 0.0 0.00 0.00 0.00 45 1003.3
20260506133918 70 0.0 0.0 0.00 0.00 0.00 46 1003.4
20260506132918 71 0.0 0.0 0.00 0.00 0.00 47 1003.5
20260506131917 69 0.0 0.0 0.00 0.00 0.00 48 1003.7
20260506130917 69 0.0 0.0 0.00 0.00 0.00 47 1003.6
20260506125918 71 0.0 0.0 0.00 0.00 0.00 42 1003.4
20260506124917 71 0.0 0.0 0.00 0.00 0.00 43 1003.4
20260506123917 72 0.0 0.0 0.00 0.00 0.00 44 1003.4
20260506122917 70 0.0 0.0 0.00 0.00 0.00 44 1003.7
20260506121917 71 0.0 0.0 0.00 0.00 0.00 46 1003.4
20260506120918 71 0.0 0.0 0.00 0.00 0.00 44 1003.5
20260506115918 69 0.0 0.0 0.00 0.00 0.00 48 1003.8
20260506114918 68 0.0 0.0 0.00 0.00 0.00 50 1004.0
20260506113917 69 0.0 0.0 0.00 0.00 0.00 50 1004.0
20260506112917 68 0.0 0.0 0.00 0.00 0.00 50 1004.1
20260506111917 68 0.0 0.0 0.00 0.00 0.00 51 1004.3
20260506110918 68 0.0 0.0 0.00 0.00 0.00 51 1004.4
20260506105918 68 0.0 0.0 0.00 0.00 0.00 51 1004.6
20260506104918 66 0.0 0.0 0.00 0.00 0.00 53 1005.0
20260506103918 65 0.0 0.0 0.00 0.00 0.00 54 1005.2
20260506102918 67 0.0 0.0 0.00 0.00 0.00 53 1005.0
20260506101917 65 0.0 0.0 0.00 0.00 0.00 52 1005.5
20260506100917 65 0.0 0.0 0.00 0.00 0.00 54 1005.6
20260506095917 64 0.0 0.0 0.00 0.00 0.00 55 1005.7
20260506094918 64 0.0 0.0 0.00 0.00 0.00 54 1005.7
20260506093920 64 0.0 0.0 0.00 0.00 0.00 55 1005.8
20260506092917 63 0.0 0.0 0.00 0.00 0.00 55 1006.0
20260506091917 63 0.0 0.0 0.00 0.00 0.00 57 1005.9
20260506090917 63 0.0 0.0 0.00 0.00 0.00 57 1006.0
20260506085917 62 0.0 0.0 0.00 0.00 0.00 57 1006.1
20260506084917 62 0.0 0.0 0.00 0.00 0.00 57 1006.0
20260506083917 62 0.0 0.0 0.00 0.00 0.00 58 1006.2
20260506082917 60 0.0 0.0 0.00 0.00 0.00 61 1006.4
20260506081917 60 0.0 0.0 0.00 0.00 0.00 61 1006.3
20260506080917 59 0.0 0.0 0.00 0.00 0.00 61 1006.5
20260506072917 57 0.0 0.0 0.00 0.00 0.00 67 1007.0
20260506071917 57 0.0 0.0 0.00 0.00 0.00 69 1007.1
20260506070917 55 0.0 0.0 0.00 0.00 0.00 71 1007.6
20260506061917 54 0.0 0.0 0.00 0.00 0.00 83 1008.1
20260506060917 50 0.0 0.0 0.00 0.00 0.00 92 1009.0
20260506050917 53 0.0 0.0 0.00 0.00 0.00 79 1008.5
20260506044917 52 0.0 0.0 0.00 0.00 0.00 83 1008.7
20260506043917 52 0.0 0.0 0.00 0.00 0.00 82 1008.9
20260506042917 53 0.0 0.0 0.00 0.00 0.00 82 1008.7
20260506041916 53 0.0 0.0 0.00 0.00 0.00 84 1008.9
20260506040917 53 0.0 0.0 0.00 0.00 0.00 84 1008.7
20260506035916 54 0.0 0.0 0.00 0.00 0.00 87 1009.0
20260506034916 52 0.0 0.0 0.00 0.00 0.00 92 1009.1
20260506033917 49 0.0 0.0 0.00 0.00 0.00 10 1010.1
20260506032916 50 0.0 0.0 0.00 0.00 0.00 95 1009.8
20260506031917 51 0.0 0.0 0.00 0.00 0.00 93 1009.6
20260506030917 51 0.0 0.0 0.00 0.00 0.00 95 1010.0
20260506025917 54 0.0 0.0 0.00 0.00 0.00 83 1009.2
20260506024916 51 0.0 0.0 0.00 0.00 0.00 91 1010.2
20260506023916 54 0.0 0.0 0.00 0.00 0.00 85 1009.6
20260506022916 54 0.0 0.0 0.00 0.00 0.00 82 1009.6
20260506021917 57 0.0 0.0 0.00 0.00 0.00 75 1009.1
20260506020917 56 0.0 0.0 0.00 0.00 0.00 78 1009.4
20260506015918 56 0.0 0.0 0.00 0.00 0.00 80 1009.6
20260506014917 54 0.0 0.0 0.00 0.00 0.00 88 1010.0
20260506013916 56 0.0 0.0 0.00 0.00 0.00 82 1009.6
20260506012916 56 0.0 0.0 0.00 0.00 0.00 83 1009.4
20260506011917 56 0.0 0.0 0.00 0.00 0.00 82 1009.8
20260506010916 58 0.0 0.0 0.00 0.00 0.00 74 1009.4
20260506005917 59 0.0 0.0 0.00 0.00 0.00 74 1009.5
20260506004916 58 0.0 0.0 0.00 0.00 0.00 76 1009.8
20260506003917 52 0.0 0.0 0.00 0.00 0.00 92 1011.2
20260506002916 58 0.0 0.0 0.00 0.00 0.00 76 1010.3
20260506001917 58 0.0 0.0 0.00 0.00 0.00 76 1010.1
20260506000916 56 0.0 0.0 0.00 0.00 0.00 79 1010.5
20260505235916 57 0.0 0.0 0.00 0.00 0.00 78 1010.8
20260505234916 56 0.0 0.0 0.00 0.00 0.00 80 1011.3
20260505233918 58 0.0 0.0 0.00 0.00 0.00 75 1011.1
20260505232916 57 0.0 0.0 0.00 0.00 0.00 76 1011.5
20260505231916 57 0.0 0.0 0.00 0.00 0.00 80 1011.6
20260505230916 58 0.0 0.0 0.00 0.00 0.00 77 1011.3
20260505225916 57 0.0 0.0 0.00 0.00 0.00 78 1011.6
20260505224916 58 0.0 0.0 0.00 0.00 0.00 77 1011.5
20260505223916 58 0.0 0.0 0.00 0.00 0.00 77 1011.3
20260505222916 58 0.0 0.0 0.00 0.00 0.00 75 1011.3
20260505221916 57 0.0 0.0 0.00 0.00 0.00 79 1011.5
20260505220916 58 0.0 0.0 0.00 0.00 0.00 76 1011.6
20260505215916 60 0.0 0.0 0.00 0.00 0.00 72 1011.4
20260505214916 58 0.0 0.0 0.00 0.00 0.00 77 1011.8
20260505213916 58 0.0 0.0 0.00 0.00 0.00 76 1011.7
20260505212916 58 0.0 0.0 0.00 0.00 0.00 79 1011.5
20260505211916 58 0.0 0.0 0.00 0.00 0.00 78 1011.9
20260505210916 58 0.0 0.0 0.00 0.00 0.00 75 1011.9
20260505205916 58 0.0 0.0 0.00 0.00 0.00 77 1012.1